Bellefonte, PA

7:54 AM EST on January 18, 2017 (GMT -0500)
University Park

Weather History for KUNV - July, 2013

Change the Weather History Date:

Monday, July 29, 2013

  Actual Average Record
Temperature  
Mean Temperature 63 °F -  
Max Temperature 73 °F 81 °F 94 °F (1940)
Min Temperature 53 °F 59 °F 33 °F (1996)
Degree Days  
Heating Degree Days 2    
Growing Degree Days 13 (Base 50)    
Moisture  
Dew Point 53 °F    
Average Humidity 73    
Maximum Humidity 94    
Minimum Humidity 44    
Precipitation  
Precipitation 0.00 in - - ()
Sea Level Pressure  
Sea Level Pressure 30.11 in    
Wind  
Wind Speed 2 mph (WSW)    
Max Wind Speed 9 mph    
Max Gust Speed 18 mph    
Visibility 10 miles    
Events      
Averages and records for this station are not official NWS values.
T = Trace of Precipitation, MM = Missing Value Source: NWS Daily Summary

Daily Weather History Graph

Daily Weather History Graph

Search for Another Location

Airport or City:

Trip Planner

Search our weather history database for the weather conditions in past years. The results will help you decide how hot, cold, wet, or windy it might be!

Date:

Astronomy

Jul. 29, 2013 Rise Set
Actual Time 6:05 AM EDT 8:30 PM EDT
Civil Twilight 5:34 AM EDT 9:01 PM EDT
Nautical Twilight 4:55 AM EDT 9:39 PM EDT
Astronomical Twilight 4:12 AM EDT 10:22 PM EDT
Moon No Moon Rise 1:48 PM EDT (7/29)
Length of Visible Light 15h 27m
Length of Day
14h 24m
Waning Gibbous, 51% of the Moon is Illuminated
Jul 29
Waning Gibbous
Jul 29
Last Quarter
Aug 6
New
Aug 14
First Quarter
Aug 20
Full

Hourly Weather History & Observations

Time (EDT) Temp. Dew Point Humidity Pressure Visibility Wind Dir Wind Speed Gust Speed Precip Events Conditions
12:15 AM 64.4 °F 53.8 °F 68% 30.05 in 10.0 mi Calm Calm - N/A   Clear
12:35 AM 61.2 °F 54.5 °F 79% 30.05 in 10.0 mi Calm Calm - N/A   Scattered Clouds
12:55 AM 60.1 °F 55.0 °F 83% 30.05 in 10.0 mi Calm Calm - N/A   Clear
1:15 AM 60.3 °F 54.1 °F 80% 30.05 in 10.0 mi Calm Calm - N/A   Clear
1:35 AM 59.5 °F 53.2 °F 80% 30.05 in 10.0 mi Calm Calm - N/A   Scattered Clouds
1:55 AM 59.0 °F 54.5 °F 85% 30.05 in 10.0 mi Calm Calm - N/A   Scattered Clouds
2:15 AM 58.5 °F 54.0 °F 85% 30.05 in 10.0 mi Calm Calm - N/A   Clear
2:35 AM 59.4 °F 52.7 °F 79% 30.05 in 10.0 mi SSW 3.5 mph - N/A   Scattered Clouds
2:55 AM 57.0 °F 52.2 °F 84% 30.05 in 10.0 mi SW 4.6 mph - N/A   Clear
3:15 AM 57.7 °F 52.5 °F 83% 30.05 in 10.0 mi West 4.6 mph - N/A   Scattered Clouds
3:55 AM 55.8 °F 52.9 °F 90% 30.06 in 10.0 mi Calm Calm - N/A   Clear
4:15 AM 55.9 °F 53.6 °F 92% 30.07 in 10.0 mi Calm Calm - N/A   Clear
4:35 AM 55.4 °F 53.6 °F 94% 30.07 in 10.0 mi Calm Calm - N/A   Clear
4:55 AM 56.8 °F 53.6 °F 89% 30.07 in 10.0 mi Calm Calm - N/A   Clear
5:15 AM 55.6 °F 52.7 °F 90% 30.07 in 10.0 mi SW 3.5 mph - N/A   Scattered Clouds
5:35 AM 54.7 °F 52.5 °F 92% 30.08 in 10.0 mi Calm Calm - N/A   Clear
5:53 AM 53.6 °F 51.8 °F 94% 30.08 in 10.0 mi Calm Calm - N/A   Clear
6:53 AM 55.4 °F 53.6 °F 94% 30.10 in 10.0 mi Calm Calm - N/A   Clear
7:53 AM 60.8 °F 57.2 °F 88% 30.10 in 10.0 mi SW 5.8 mph - N/A   Clear
8:53 AM 64.4 °F 53.6 °F 68% 30.10 in 10.0 mi West 5.8 mph - N/A   Clear
9:53 AM 66.2 °F 53.6 °F 64% 30.11 in 10.0 mi West 5.8 mph - N/A   Scattered Clouds
10:53 AM 69.8 °F 51.8 °F 53% 30.11 in 10.0 mi WNW 8.1 mph - N/A   Mostly Cloudy
11:53 AM 68.0 °F 48.2 °F 49% 30.12 in 10.0 mi West 8.1 mph - N/A   Mostly Cloudy
12:53 PM 71.6 °F 50.0 °F 46% 30.12 in 10.0 mi West 6.9 mph - N/A   Mostly Cloudy
1:53 PM 71.6 °F 51.8 °F 50% 30.12 in 10.0 mi WSW 6.9 mph - N/A   Mostly Cloudy
2:53 PM 71.6 °F 51.8 °F 50% 30.13 in 10.0 mi WSW 9.2 mph 18.4 mph N/A   Mostly Cloudy
3:53 PM 71.6 °F 51.8 °F 50% 30.12 in 10.0 mi WSW 9.2 mph - N/A   Mostly Cloudy
4:53 PM 73.4 °F 51.8 °F 47% 30.12 in 10.0 mi West 9.2 mph - N/A   Mostly Cloudy
5:53 PM 73.4 °F 50.0 °F 44% 30.12 in 10.0 mi West 9.2 mph - N/A   Mostly Cloudy
6:53 PM 69.8 °F 51.8 °F 53% 30.13 in 10.0 mi West 6.9 mph - N/A   Mostly Cloudy
7:53 PM 68.0 °F 51.8 °F 56% 30.15 in 10.0 mi West 8.1 mph - N/A   Mostly Cloudy
8:53 PM 66.2 °F 53.6 °F 64% 30.16 in 10.0 mi West 3.5 mph - N/A   Partly Cloudy
9:15 PM 65.3 °F 53.6 °F 66% 30.17 in 10.0 mi West 4.6 mph - N/A   Scattered Clouds
9:35 PM 64.2 °F 54.0 °F 69% 30.18 in 10.0 mi West 4.6 mph - N/A   Clear
9:55 PM 62.6 °F 53.8 °F 73% 30.18 in 10.0 mi West 4.6 mph - N/A   Scattered Clouds
10:15 PM 62.6 °F 53.2 °F 71% 30.19 in 10.0 mi WSW 4.6 mph - N/A   Clear
10:35 PM 60.1 °F 53.2 °F 78% 30.19 in 10.0 mi West 3.5 mph - N/A   Clear
10:55 PM 62.1 °F 52.7 °F 71% 30.19 in 10.0 mi West 3.5 mph - N/A   Scattered Clouds
11:15 PM 60.3 °F 52.5 °F 76% 30.19 in 10.0 mi Calm Calm - N/A   Scattered Clouds
11:35 PM 57.9 °F 53.8 °F 86% 30.20 in 10.0 mi South 3.5 mph - N/A   Scattered Clouds
11:55 PM 58.8 °F 53.8 °F 83% 30.20 in 10.0 mi SSW 4.6 mph - N/A   Scattered Clouds